• In Hungary
  • List of Countries
  • For 7 days
  • Water Temperature
  • Satellite Maps
  • Weather Map
  • News
  • Weather Widgets
  • user-avatar
    Login

    Hourly Weather Superior

    Today, 20 January, Saturday

    Time Temperature Precipitation Wind Pressure Humidity
    00:00 -1°C° 0 mm 3 mps 736 mmHg 91%
    01:00 -2°C° 0 mm 3 mps 736 mmHg 92%
    02:00 -3°C° 0 mm 2 mps 737 mmHg 93%
    03:00 -3°C° 0 mm 2 mps 737 mmHg 94%
    04:00 -4°C° 0 mm 2 mps 738 mmHg 94%
    05:00 -4°C° 0 mm 2 mps 738 mmHg 94%
    06:00 -4°C° 0 mm 2 mps 739 mmHg 94%
    07:00 -4°C° 0 mm 2 mps 739 mmHg 94%
    08:00 -4°C° 0 mm 2 mps 739 mmHg 93%
    09:00 -3°C° 0 mm 2 mps 740 mmHg 92%
    10:00 -2°C° 0 mm 2 mps 740 mmHg 88%
    11:00 -1°C° 0 mm 2 mps 740 mmHg 85%
    12:00 +2°C° 0 mm 2 mps 741 mmHg 81%
    13:00 +2°C° 0 mm 2 mps 741 mmHg 81%
    14:00 +2°C° 0 mm 2 mps 741 mmHg 82%
    15:00 +3°C° 0 mm 2 mps 741 mmHg 82%
    16:00 +1°C° 0 mm 2 mps 741 mmHg 86%
    17:00 -1°C° 0 mm 2 mps 742 mmHg 89%
    18:00 -2°C° 0 mm 2 mps 742 mmHg 93%
    19:00 -3°C° 0 mm 2 mps 742 mmHg 93%
    20:00 -1°C° 0 mm 1 mps 743 mmHg 93%
    21:00 -1°C° 0 mm 1 mps 743 mmHg 93%
    22:00 -1°C° 0 mm 1 mps 743 mmHg 93%
    23:00 -1°C° 0 mm 1 mps 743 mmHg 93%

    Tomorrow, 21 January, Sunday

    Time Temperature Precipitation Wind Pressure Humidity
    00:00 -1°C° 0 mm 1 mps 743 mmHg 92%
    01:00 -2°C° 0 mm 1 mps 744 mmHg 92%
    02:00 -2°C° 0 mm 1 mps 744 mmHg 92%
    03:00 -2°C° 0 mm 1 mps 744 mmHg 92%
    04:00 -2°C° 0 mm 1 mps 744 mmHg 92%
    05:00 -2°C° 0 mm 1 mps 744 mmHg 91%
    06:00 -2°C° 0 mm 1 mps 744 mmHg 91%
    07:00 -2°C° 0 mm 1 mps 745 mmHg 90%
    08:00 -2°C° 0 mm 1 mps 745 mmHg 90%
    09:00 -2°C° 0 mm 1 mps 745 mmHg 89%
    10:00 -1°C° 0 mm 1 mps 745 mmHg 85%
    11:00 +1°C° 0 mm 1 mps 745 mmHg 81%
    12:00 +2°C° 0 mm 1 mps 745 mmHg 78%
    13:00 +2°C° 0 mm 1 mps 745 mmHg 79%
    14:00 +2°C° 0 mm 1 mps 745 mmHg 80%
    15:00 +2°C° 0 mm 1 mps 745 mmHg 82%
    16:00 -1°C° 0 mm 2 mps 745 mmHg 85%
    17:00 -1°C° 0 mm 2 mps 746 mmHg 89%
    18:00 -2°C° 0 mm 2 mps 746 mmHg 92%
    19:00 -2°C° 0 mm 2 mps 746 mmHg 93%
    20:00 -2°C° 0 mm 3 mps 746 mmHg 94%
    21:00 -2°C° 0 mm 3 mps 746 mmHg 95%
    22:00 -3°C° 0 mm 4 mps 746 mmHg 94%
    23:00 -3°C° 0 mm 4 mps 746 mmHg 94%

    Day after tomorrow, 22 January, Monday

    Time Temperature Precipitation Wind Pressure Humidity
    00:00 -3°C° 0 mm 4 mps 746 mmHg 94%
    01:00 -3°C° 0 mm 4 mps 746 mmHg 93%
    02:00 -4°C° 0 mm 5 mps 746 mmHg 92%
    03:00 -4°C° 0 mm 5 mps 745 mmHg 91%
    04:00 -5°C° 0.1 mm 5 mps 745 mmHg 90%
    05:00 -5°C° 0.1 mm 6 mps 745 mmHg 89%
    06:00 -5°C° 0.1 mm 6 mps 744 mmHg 89%
    07:00 -5°C° 0.1 mm 6 mps 744 mmHg 87%
    08:00 -6°C° 0.1 mm 7 mps 745 mmHg 86%
    09:00 -6°C° 0.1 mm 7 mps 745 mmHg 85%
    10:00 -6°C° 0.1 mm 7 mps 744 mmHg 84%
    11:00 -6°C° 0.1 mm 8 mps 743 mmHg 83%
    12:00 -6°C° 0.1 mm 8 mps 742 mmHg 82%
    13:00 -7°C° 0.8 mm 7 mps 741 mmHg 84%
    14:00 -7°C° 0.8 mm 7 mps 741 mmHg 86%
    15:00 -8°C° 0.8 mm 7 mps 741 mmHg 88%
    16:00 -8°C° 1.2 mm 6 mps 741 mmHg 89%
    17:00 -9°C° 1.2 mm 6 mps 741 mmHg 90%
    18:00 -9°C° 1.2 mm 6 mps 741 mmHg 91%
    19:00 -10°C° 0.6 mm 6 mps 741 mmHg 90%
    20:00 -10°C° 0.6 mm 6 mps 741 mmHg 89%
    21:00 -10°C° 0.6 mm 5 mps 741 mmHg 88%
    22:00 -11°C° 0.2 mm 5 mps 741 mmHg 88%
    23:00 -11°C° 0.2 mm 5 mps 741 mmHg 88%

    23 January, Tuesday

    Time Temperature Precipitation Wind Pressure Humidity
    00:00 -11°C° 0.2 mm 4 mps 741 mmHg 88%
    01:00 -11°C° 0.2 mm 4 mps 741 mmHg 87%
    02:00 -12°C° 0.2 mm 4 mps 741 mmHg 87%
    03:00 -12°C° 0.2 mm 4 mps 742 mmHg 86%
    04:00 -14°C° 0 mm 4 mps 742 mmHg 86%
    05:00 -14°C° 0 mm 4 mps 742 mmHg 85%
    06:00 -15°C° 0 mm 4 mps 743 mmHg 84%
    07:00 -15°C° 0 mm 4 mps 743 mmHg 83%
    08:00 -15°C° 0 mm 4 mps 743 mmHg 83%
    09:00 -15°C° 0 mm 4 mps 744 mmHg 82%
    10:00 -13°C° 0 mm 3 mps 744 mmHg 79%
    11:00 -12°C° 0 mm 3 mps 744 mmHg 75%
    12:00 -10°C° 0 mm 3 mps 745 mmHg 72%
    13:00 -10°C° 0 mm 3 mps 745 mmHg 71%
    14:00 -9°C° 0 mm 3 mps 745 mmHg 69%
    15:00 -9°C° 0 mm 3 mps 745 mmHg 68%
    16:00 -10°C° 0 mm 3 mps 746 mmHg 72%
    17:00 -12°C° 0 mm 3 mps 747 mmHg 75%
    18:00 -13°C° 0 mm 3 mps 748 mmHg 78%
    19:00 -14°C° 0 mm 3 mps 748 mmHg 80%
    20:00 -14°C° 0 mm 2 mps 749 mmHg 81%
    21:00 -14°C° 0 mm 2 mps 749 mmHg 83%
    22:00 -15°C° 0 mm 2 mps 750 mmHg 84%
    23:00 -15°C° 0 mm 2 mps 750 mmHg 86%

    24 January, Wednesday

    Time Temperature Precipitation Wind Pressure Humidity
    00:00 -15°C° 0 mm 2 mps 751 mmHg 87%
    01:00 -14°C° 0 mm 1 mps 751 mmHg 87%
    02:00 -14°C° 0 mm 1 mps 751 mmHg 87%
    03:00 -14°C° 0 mm 1 mps 752 mmHg 87%
    04:00 -15°C° 0 mm 1 mps 752 mmHg 87%
    05:00 -15°C° 0 mm 0 mps 753 mmHg 87%
    06:00 -15°C° 0 mm 0 mps 753 mmHg 86%
    07:00 -14°C° 0 mm 0 mps 754 mmHg 85%
    08:00 -13°C° 0 mm 0 mps 754 mmHg 84%
    09:00 -13°C° 0 mm 0 mps 755 mmHg 83%
    10:00 -11°C° 0 mm 1 mps 754 mmHg 79%
    11:00 -9°C° 0 mm 1 mps 754 mmHg 75%
    12:00 -8°C° 0 mm 1 mps 754 mmHg 71%
    13:00 -7°C° 0 mm 1 mps 754 mmHg 72%
    14:00 -8°C° 0 mm 2 mps 754 mmHg 72%
    15:00 -8°C° 0 mm 2 mps 753 mmHg 73%
    16:00 -9°C° 0 mm 2 mps 753 mmHg 79%
    17:00 -10°C° 0 mm 2 mps 753 mmHg 84%
    18:00 -13°C° 0 mm 2 mps 754 mmHg 90%
    19:00 -13°C° 0 mm 2 mps 753 mmHg 90%
    20:00 -13°C° 0 mm 2 mps 753 mmHg 91%
    21:00 -14°C° 0 mm 2 mps 753 mmHg 92%
    22:00 -15°C° 0 mm 3 mps 753 mmHg 93%
    23:00 -15°C° 0 mm 3 mps 753 mmHg 94%

    25 January, Thursday

    Time Temperature Precipitation Wind Pressure Humidity
    00:00 -15°C° 0 mm 3 mps 752 mmHg 95%
    01:00 -15°C° 0 mm 3 mps 752 mmHg 95%
    02:00 -14°C° 0 mm 3 mps 752 mmHg 96%
    03:00 -14°C° 0 mm 3 mps 752 mmHg 96%
    04:00 -13°C° 0 mm 3 mps 751 mmHg 95%
    05:00 -13°C° 0 mm 3 mps 751 mmHg 95%
    06:00 -13°C° 0 mm 3 mps 751 mmHg 94%
    07:00 -12°C° 0 mm 3 mps 750 mmHg 93%
    08:00 -10°C° 0 mm 3 mps 750 mmHg 93%
    09:00 -9°C° 0 mm 3 mps 749 mmHg 92%
    10:00 -8°C° 0 mm 3 mps 749 mmHg 91%
    11:00 -7°C° 0 mm 3 mps 748 mmHg 89%
    12:00 -5°C° 0 mm 3 mps 748 mmHg 87%
    13:00 -4°C° 0 mm 2 mps 747 mmHg 87%
    14:00 -3°C° 0 mm 2 mps 747 mmHg 87%
    15:00 -3°C° 0 mm 2 mps 746 mmHg 87%
    16:00 -1°C° 0 mm 1 mps 747 mmHg 89%
    17:00 -2°C° 0 mm 1 mps 747 mmHg 92%
    18:00 -2°C° 0 mm 1 mps 747 mmHg 94%
    19:00 -3°C° 0 mm 1 mps 747 mmHg 95%
    20:00 -3°C° 0 mm 1 mps 747 mmHg 95%
    21:00 -3°C° 0 mm 1 mps 747 mmHg 95%
    22:00 -3°C° 0 mm 1 mps 747 mmHg 95%
    23:00 -3°C° 0 mm 1 mps 747 mmHg 96%
    Show more